AirNav   ATP
 
 1063 users online  

Y89 Kalkaska City Airport
Kalkaska, Michigan, USA

GOING TO KALKASKA?


FAA INFORMATION EFFECTIVE 19 JULY 2018

Location

FAA Identifier: Y89
Lat/Long: 44-43-30.6600N / 085-12-11.2500W
44-43.511000N / 085-12.187500W
44.7251833 / -85.2031250
(estimated)
Elevation: 1030 ft. / 313.9 m (surveyed)
Variation: 05W (1985)
From city: 1 mile SW of KALKASKA, MI
Time zone: UTC -4 (UTC -5 during Standard Time)
Zip code: 49646

Airport Operations

Airport use: Open to the public
Activation date: 09/1960
Control tower: no
ARTCC: MINNEAPOLIS CENTER
FSS: LANSING FLIGHT SERVICE STATION
NOTAMs facility: LAN (NOTAM-D service available)
Attendance: UNATNDD
Wind indicator: lighted
Segmented circle: yes
Lights: ACTVT MIRL RY 10/28 & PAPI RYS 10 & 28 - CTAF.

Airport Communications

CTAF: 122.9
WX AWOS-3 at ACB (16 nm N): 119.275 (231-533-8941)
WX ASOS at TVC (16 nm W): 119.175 (231-486-2920)

Nearby radio navigation aids

VOR radial/distance  VOR name  Freq  Var
TVCr079/15.2TRAVERSE CITY VOR/DME114.6002W
CGGr283/(20.4)GRAYLING VOR109.8006W
GLRr237/27.3GAYLORD VOR/DME109.2006W

 
NDB name  Hdg/Dist  Freq  Var  ID
GWENN098/9.636505WTV - ...-
GRAYLING271/16.035906WGYG --. -.-- --.
CHARLEVOIX180/34.739205WCVX -.-. ...- -..-

Airport Services

Parking: tiedowns

Runway Information

Runway 10/28

Dimensions: 3500 x 75 ft. / 1067 x 23 m
Surface: asphalt, in good condition
Runway edge lights: medium intensity
Runway edge markings: MKG FADED
RUNWAY 10  RUNWAY 28
Latitude: 44-43.570833N44-43.451267N
Longitude: 085-12.582667W085-11.792260W
Traffic pattern: leftleft
Markings: basic, in poor conditionbasic, in poor condition
Visual slope indicator: 2-light PAPI on left (3.00 degrees glide path)2-light PAPI on left (4.00 degrees glide path)
Obstructions: 33 ft. trees, 662 ft. from runway, 130 ft. left of centerline, 14:1 slope to clear68 ft. trees, 1356 ft. from runway, 17:1 slope to clear

Airport Ownership and Management from official FAA records

Ownership: Publicly-owned
Owner: VILLAGE OF KALKASKA
200 HYDE
KALKASKA, MI 49646
Phone 231-258-9191
ARPT PHYSICAL LOCATION 1325 ISLAND LK RD
Manager: SCOTT YOST
200 HYDE
KALKASKA, MI 49646
Phone 231-258-9191
AFTER HRS FIELD CONDITIONS, CTC CENTRAL DISPATCH 231-258-3350.

Airport Operational Statistics

Aircraft based on the field: 5
Single engine airplanes: 5
    
Aircraft operations: avg 51/week *
50% transient general aviation
50% local general aviation
* for 12-month period ending 31 December 2015

Additional Remarks

ADMIN BLDG & PHONE 300 FT WEST OF ACFT PKG AREA, IN TRANSIT AUTHORTY OFFICE. ACCESS PRESS 5, THEN 3-2 SIMULTANEOUS, THEN 1.
DEER & BIRDS ON & INVOF ARPT.

Instrument Procedures

There are no published instrument procedures at Y89.

Some nearby airports with instrument procedures:

KACB - Antrim County Airport (16 nm N)
KTVC - Cherry Capital Airport (16 nm W)
KGOV - Grayling Army Airfield (20 nm E)
KGLR - Gaylord Regional Airport (27 nm NE)
KCAD - Wexford County Airport (29 nm S)
 
Loc | Ops | Rwys | IFR | FBO | Links
Com | Nav | Svcs | Stats | Notes


 
Area around Y89 (Kalkaska City Airport)
 
Road maps at: MapQuest Bing Google
 
Aerial photo
WARNING: Photo may not be current or correct
Aerial photo of Y89 (Kalkaska City Airport)
Photo taken 01-Oct-2006

Do you have a better or more recent aerial photo of Kalkaska City Airport that you would like to share? If so, please send us your photo.

 
Sectional chart

 
Airport distance calculator
Flying to Kalkaska City Airport? Find the distance to fly.

From to Y89

Sunrise and sunset
Times for 14-Aug-2018
 Local
(UTC-4)
 Zulu
(UTC)
Morning civil twilight06:1110:11
Sunrise06:4310:43
Sunset20:4800:48
Evening civil twilight21:2001:20

Current date and time
Zulu (UTC)  15-Aug-2018 00:27:32
Local (UTC-4)  14-Aug-2018 20:27:32
 
METAR
KACB 
15nm N 
150015Z AUTO 00000KT 10SM CLR 28/14 A2991 RMK AO2 T02760141
KTVC 
16nm W 
142353Z 25007G15KT 10SM SCT250 30/16 A2990 RMK AO2 SLP120 T03000161 10339 20300 53001
KGOV 
20nm E 
142358Z AUTO 27007KT 9SM CLR 28/13 A2991 RMK AO2 SLP130 T02780133 10325 20278 53003 $
KGLR 
28nm NE 
142353Z AUTO 27009KT 10SM CLR 27/12 A2993 RMK AO2 SLP129 T02720122 10311 20272 55000
KCAD 
29nm S 
150015Z AUTO 26005KT 10SM CLR 25/15 A2996 RMK AO2 T02510155
TAF
KTVC 
16nm W 
141728Z 1418/1518 25011KT P6SM FEW250 FM150000 28007KT P6SM SCT060 FM150500 VRB03KT P6SM VCSH BKN050 FM150900 34003KT P6SM VCSH BKN030 FM151400 35004KT P6SM BKN050 FM151700 02005KT P6SM BKN060
NOTAMs
Click for the latest NOTAMs
NOTAMs are issued by the DoD/FAA and will open in a separate window not controlled by AirNav.

 

 
 

Would you like to see your business listed on this page?

 If your business provides an interesting product or service to pilots, flight crews, aircraft, or users of the Kalkaska City Airport, you should consider listing it here.  To start the listing process, click on the button below
 
Add a business
 

Other Pages about Kalkaska City Airport

Page from the Michigan Airport Directory (PDF)
 
Update a link
 
Copyright © AirNav, LLC. All rights reserved. Privacy Policy  Contact